Litchfield, MN

7:59 AM CST on December 11, 2016 (GMT -0600)
Litchfield Municipal

Weather History for KLJF - April, 2014

Change the Weather History Date:

Friday, April 25, 2014

  Actual Average Record
Temperature  
Mean Temperature 50 °F -  
Max Temperature 64 °F 64 °F 90 °F (1962)
Min Temperature 37 °F 39 °F 25 °F (1968)
Degree Days  
Heating Degree Days 14    
Moisture  
Dew Point 40 °F    
Average Humidity 75    
Maximum Humidity 100    
Minimum Humidity 34    
Precipitation  
Precipitation 0.00 in - - ()
Sea Level Pressure  
Sea Level Pressure 29.80 in    
Wind  
Wind Speed 5 mph (NW)    
Max Wind Speed 15 mph    
Max Gust Speed 21 mph    
Visibility 9 miles    
Events      
Averages and records for this station are not official NWS values.
T = Trace of Precipitation, MM = Missing Value Source: NWS Daily Summary

Daily Weather History Graph

Daily Weather History Graph

Search for Another Location

Airport or City:

Trip Planner

Search our weather history database for the weather conditions in past years. The results will help you decide how hot, cold, wet, or windy it might be!

Date:

Astronomy

Apr. 25, 2014 Rise Set
Actual Time 6:16 AM CDT 8:16 PM CDT
Civil Twilight 5:44 AM CDT 8:48 PM CDT
Nautical Twilight 5:05 AM CDT 9:27 PM CDT
Astronomical Twilight 4:22 AM CDT 10:10 PM CDT
Moon 4:16 AM CDT (4/25) 4:29 PM CDT (4/25)
Length of Visible Light 15h 03m
Length of Day
14h 00m
Waning Crescent, 15% of the Moon is Illuminated
Apr 25
Waning Crescent
Apr 29
New
May 6
First Quarter
May 14
Full
May 21
Last Quarter

Hourly Weather History & Observations

Time (CDT) Temp. Windchill Dew Point Humidity Pressure Visibility Wind Dir Wind Speed Gust Speed Precip Events Conditions
12:13 AM 39.2 °F - 39.2 °F 100% 29.73 in 5.0 mi Calm Calm - N/A   Clear
12:33 AM 39.2 °F - 39.2 °F 100% 29.72 in 3.0 mi Calm Calm - N/A   Mist
12:53 AM 39.2 °F - 39.2 °F 100% 29.72 in 3.0 mi Calm Calm - N/A   Mist
1:12 AM 39.2 °F - 39.2 °F 100% 29.72 in 7.0 mi Calm Calm - N/A   Clear
1:33 AM 39.2 °F 37.0 °F 39.2 °F 100% 29.72 in 7.0 mi SW 3.5 mph - N/A   Clear
1:53 AM 39.2 °F 37.0 °F 39.2 °F 100% 29.72 in 7.0 mi SW 3.5 mph - N/A   Clear
2:12 AM 39.2 °F 37.0 °F 39.2 °F 100% 29.72 in 10.0 mi West 3.5 mph - N/A   Clear
2:33 AM 39.2 °F 37.0 °F 39.2 °F 100% 29.72 in 10.0 mi NW 3.5 mph - N/A   Clear
2:52 AM 39.2 °F 35.9 °F 39.2 °F 100% 29.73 in 10.0 mi NW 4.6 mph - N/A   Clear
3:13 AM 39.2 °F - 39.2 °F 100% 29.72 in 10.0 mi Calm Calm - N/A   Clear
3:32 AM 39.2 °F - 39.2 °F 100% 29.72 in 10.0 mi Calm Calm - N/A   Clear
3:53 AM 39.2 °F - 39.2 °F 100% 29.72 in 10.0 mi Calm Calm - N/A   Clear
4:13 AM 37.4 °F - 37.4 °F 100% 29.72 in 7.0 mi Calm Calm - N/A   Clear
4:32 AM 37.4 °F - 37.4 °F 100% 29.72 in 5.0 mi Calm Calm - N/A   Clear
4:53 AM 37.4 °F - 37.4 °F 100% 29.72 in 3.0 mi Calm Calm - N/A   Clear
5:13 AM 37.4 °F 34.9 °F 35.6 °F 93% 29.73 in 3.0 mi West 3.5 mph - N/A   Clear
5:32 AM 37.4 °F 34.9 °F 37.4 °F 100% 29.73 in 7.0 mi West 3.5 mph - N/A   Clear
5:53 AM 39.2 °F 35.0 °F 39.2 °F 100% 29.73 in 7.0 mi West 5.8 mph - N/A   Clear
6:13 AM 39.2 °F 35.0 °F 39.2 °F 100% 29.74 in 10.0 mi West 5.8 mph - N/A   Clear
6:32 AM 39.2 °F 34.2 °F 39.2 °F 100% 29.75 in 10.0 mi West 6.9 mph - N/A   Clear
6:53 AM 39.2 °F 34.2 °F 39.2 °F 100% 29.76 in 10.0 mi West 6.9 mph - N/A   Clear
7:13 AM 41.0 °F 36.4 °F 39.2 °F 93% 29.76 in 10.0 mi WNW 6.9 mph - N/A   Clear
7:33 AM 41.0 °F 34.7 °F 39.2 °F 93% 29.77 in 10.0 mi WNW 10.4 mph - N/A   Clear
7:53 AM 42.8 °F 38.6 °F 41.0 °F 93% 29.77 in 10.0 mi WNW 6.9 mph - N/A   Clear
8:12 AM 42.8 °F 37.5 °F 41.0 °F 93% 29.78 in 10.0 mi WNW 9.2 mph - N/A   Clear
8:33 AM 44.6 °F 38.4 °F 42.8 °F 93% 29.79 in 10.0 mi WNW 12.7 mph - N/A   Clear
8:52 AM 42.8 °F 36.2 °F 42.8 °F 100% 29.79 in 7.0 mi NW 12.7 mph - N/A   Mostly Cloudy
9:13 AM 42.8 °F 36.6 °F 42.8 °F 100% 29.80 in 7.0 mi NW 11.5 mph - N/A   Overcast
9:33 AM 41.0 °F 33.5 °F 39.2 °F 93% 29.81 in 7.0 mi NW 13.8 mph 17.3 mph N/A   Overcast
9:53 AM 42.8 °F 38.6 °F 41.0 °F 93% 29.81 in 7.0 mi NW 6.9 mph - N/A   Overcast
10:13 AM 44.6 °F 39.7 °F 42.8 °F 93% 29.81 in 10.0 mi NNW 9.2 mph - N/A   Overcast
10:32 AM 44.6 °F 39.7 °F 42.8 °F 93% 29.82 in 10.0 mi NW 9.2 mph - N/A   Overcast
10:53 AM 46.4 °F 41.9 °F 42.8 °F 87% 29.82 in 10.0 mi NW 9.2 mph - N/A   Overcast
11:13 AM 48.2 °F - 42.8 °F 82% 29.82 in 10.0 mi WNW 5.8 mph - N/A   Mostly Cloudy
11:32 AM 48.2 °F - 44.6 °F 87% 29.82 in 10.0 mi West 5.8 mph - N/A   Scattered Clouds
11:53 AM 51.8 °F - 44.6 °F 76% 29.82 in 10.0 mi West 5.8 mph - N/A   Clear
12:13 PM 51.8 °F - 44.6 °F 76% 29.82 in 10.0 mi West 5.8 mph - N/A   Clear
12:32 PM 53.6 °F - 46.4 °F 77% 29.81 in 10.0 mi NW 4.6 mph - N/A   Clear
12:53 PM 55.4 °F - 44.6 °F 67% 29.81 in 10.0 mi NW 5.8 mph - N/A   Clear
1:13 PM 57.2 °F - 44.6 °F 63% 29.81 in 10.0 mi WNW 10.4 mph - N/A   Clear
1:32 PM 59.0 °F - 42.8 °F 55% 29.81 in 10.0 mi WNW 12.7 mph 16.1 mph N/A   Clear
1:53 PM 60.8 °F - 42.8 °F 52% 29.81 in 10.0 mi West 12.7 mph - N/A   Clear
2:13 PM 60.8 °F - 39.2 °F 45% 29.81 in 10.0 mi WNW 10.4 mph 19.6 mph N/A   Clear
2:32 PM 62.6 °F - 41.0 °F 45% 29.81 in 10.0 mi West 10.4 mph - N/A   Clear
2:53 PM 62.6 °F - 39.2 °F 42% 29.80 in 10.0 mi WNW 12.7 mph 18.4 mph N/A   Clear
3:13 PM 62.6 °F - 39.2 °F 42% 29.80 in 10.0 mi WNW 10.4 mph 18.4 mph N/A   Clear
3:32 PM 62.6 °F - 37.4 °F 39% 29.80 in 10.0 mi WNW 13.8 mph 19.6 mph N/A   Clear
3:53 PM 64.4 °F - 37.4 °F 37% 29.80 in 10.0 mi West 8.1 mph 17.3 mph N/A   Clear
4:13 PM 64.4 °F - 37.4 °F 37% 29.80 in 10.0 mi NW 13.8 mph 17.3 mph N/A   Clear
4:32 PM 64.4 °F - 37.4 °F 37% 29.79 in 10.0 mi NW 13.8 mph 19.6 mph N/A   Scattered Clouds
4:53 PM 64.4 °F - 35.6 °F 34% 29.79 in 10.0 mi WNW 12.7 mph 16.1 mph N/A   Clear
5:12 PM 64.4 °F - 39.2 °F 40% 29.79 in 10.0 mi NNW 15.0 mph 18.4 mph N/A   Clear
5:33 PM 64.4 °F - 37.4 °F 37% 29.80 in 10.0 mi NNW 11.5 mph 20.7 mph N/A   Clear
5:53 PM 64.4 °F - 37.4 °F 37% 29.80 in 10.0 mi NW 11.5 mph - N/A   Clear
6:12 PM 62.6 °F - 39.2 °F 42% 29.81 in 10.0 mi North 12.7 mph - N/A   Clear
6:33 PM 62.6 °F - 41.0 °F 45% 29.82 in 10.0 mi North 6.9 mph - N/A   Clear
6:53 PM 62.6 °F - 41.0 °F 45% 29.82 in 10.0 mi North 10.4 mph - N/A   Clear
7:12 PM 60.8 °F - 41.0 °F 48% 29.83 in 10.0 mi North 9.2 mph - N/A   Clear
7:33 PM 59.0 °F - 39.2 °F 48% 29.83 in 10.0 mi North 8.1 mph - N/A   Clear
7:53 PM 57.2 °F - 39.2 °F 51% 29.84 in 10.0 mi North 6.9 mph - N/A   Scattered Clouds
8:13 PM 55.4 °F - 39.2 °F 54% 29.84 in 10.0 mi North 6.9 mph - N/A   Scattered Clouds
8:33 PM 55.4 °F - 39.2 °F 54% 29.85 in 10.0 mi North 4.6 mph - N/A   Clear
8:52 PM 53.6 °F - 41.0 °F 62% 29.86 in 10.0 mi NNE 4.6 mph - N/A   Scattered Clouds
9:13 PM 51.8 °F - 42.8 °F 71% 29.87 in 10.0 mi NNE 4.6 mph - N/A   Scattered Clouds
9:33 PM 51.8 °F - 41.0 °F 67% 29.88 in 10.0 mi Calm Calm - N/A   Unknown
9:52 PM 51.8 °F - 39.2 °F 62% 29.88 in 10.0 mi NE 6.9 mph - N/A   Unknown
10:13 PM 51.8 °F - 39.2 °F 62% 29.89 in 10.0 mi NE 9.2 mph - N/A   Clear
10:33 PM 48.2 °F - 39.2 °F 71% 29.90 in 10.0 mi ENE 6.9 mph - N/A   Clear
10:52 PM 48.2 °F - 37.4 °F 66% 29.91 in 10.0 mi NE 11.5 mph 18.4 mph N/A   Clear
11:13 PM 46.4 °F 41.9 °F 37.4 °F 71% 29.92 in 10.0 mi ENE 9.2 mph - N/A   Clear
11:32 PM 46.4 °F 41.9 °F 35.6 °F 66% 29.92 in 10.0 mi ENE 9.2 mph - N/A   Clear
11:53 PM 44.6 °F 39.7 °F 35.6 °F 71% 29.92 in 10.0 mi ENE 9.2 mph - N/A   Clear